User: anonymous   Login
Location: Caltech
(34.1382°N, 118.1253°W)
Time: 04:37:32
(UTC-08:00)
Language:

NOSS 3-4 (C) - Orbit

View from above orbital plane
View from above orbital plane
View from above satellite
View from above satellite

Ground track
Ground track

The orbit data is extracted from the following two-line orbital elements,

1 31708U 07027C   17049.87416605 0.00000000  00000-0  00000-0 0    06
2 31708  63.4000  25.1989 0180000  25.1614 334.8386 13.40724786    03
Epoch (UTC): 18 February 2017 20:58:47
Eccentricity: 0.0180000
inclination: 63.4000°
perigee height: 972 km
apogee height: 1241 km
right ascension of ascending node: 25.1989°
argument of perigee: 25.1614°
revolutions per day: 13.40724786
mean anomaly at epoch: 334.8386°
orbit number at epoch: 0

The dashed part of the orbit path shows where the satellite is in the earth's shadow,  

DLR